QPF
0.01 0.00 0.00 0.00 0.00 0.00 0.01 0.01 0.00 0.01 0.01 0.03 0.03 0.02 0.02 0.02 0.02 0.04 0.05 0.06 0.05 0.05 0.06 0.06 0.05 0.05 0.05 0.04 0.04 0.05 0.05 0.04 0.03 0.06 0.08 0.06 0.06 0.07 0.06 0.07 0.08 0.08 0.05
0.01 0.00 0.00 0.00 0.00 0.01 0.01 0.01 0.01 0.01 0.01 0.03 0.03 0.02 0.01 0.01 0.03 0.06 0.07 0.06 0.05 0.05 0.04 0.05 0.05 0.04 0.04 0.03 0.03 0.04 0.04 0.03 0.04 0.07 0.08 0.06 0.04 0.05 0.09 0.11 0.10 0.09 0.08
0.01 0.01 0.01 0.01 0.01 0.01 0.01 0.01 0.02 0.03 0.04 0.04 0.04 0.02 0.02 0.01 0.01 0.02 0.03 0.05 0.05 0.05 0.04 0.04 0.04 0.04 0.03 0.04 0.03 0.02 0.02 0.02 0.04 0.05 0.07 0.06 0.05 0.05 0.06 0.09 0.10 0.10 0.09
0.01 0.01 0.02 0.02 0.02 0.02 0.02 0.03 0.04 0.05 0.05 0.04 0.05 0.04 0.03 0.01 0.01 0.00 0.01 0.02 0.03 0.04 0.03 0.03 0.03 0.03 0.04 0.04 0.03 0.03 0.03 0.02 0.02 0.03 0.04 0.05 0.06 0.05 0.04 0.05 0.06 0.07 0.06
0.01 0.01 0.01 0.01 0.01 0.02 0.02 0.03 0.03 0.04 0.05 0.06 0.06 0.06 0.05 0.02 0.02 0.01 0.01 0.01 0.02 0.02 0.03 0.04 0.04 0.04 0.04 0.04 0.04 0.04 0.04 0.04 0.03 0.03 0.04 0.05 0.05 0.04 0.03 0.03 0.03 0.04 0.04
0.01 0.01 0.01 0.01 0.01 0.01 0.01 0.01 0.01 0.03 0.08 0.09 0.08 0.06 0.04 0.02 0.02 0.02 0.02 0.01 0.01 0.02 0.02 0.03 0.05 0.04 0.04 0.05 0.04 0.04 0.05 0.05 0.05 0.04 0.03 0.04 0.04 0.04 0.04 0.03 0.03 0.04 0.05
0.02 0.01 0.01 0.00 0.00 0.00 0.00 0.00 0.00 0.01 0.01 0.03 0.05 0.05 0.03 0.01 0.01 0.02 0.02 0.01 0.02 0.02 0.02 0.03 0.05 0.04 0.04 0.04 0.04 0.03 0.04 0.05 0.04 0.04 0.04 0.05 0.06 0.07 0.06 0.06 0.07 0.08 0.09
0.02 0.01 0.01 0.01 0.00 0.00 0.00 0.00 0.01 0.02 0.02 0.01 0.01 0.01 0.01 0.01 0.01 0.01 0.02 0.02 0.02 0.02 0.02 0.02 0.02 0.02 0.03 0.04 0.04 0.03 0.04 0.04 0.03 0.03 0.04 0.04 0.06 0.07 0.08 0.10 0.11 0.11 0.11
0.03 0.02 0.01 0.01 0.01 0.01 0.00 0.00 0.01 0.01 0.01 0.01 0.02 0.03 0.03 0.03 0.02 0.01 0.01 0.01 0.01 0.01 0.01 0.02 0.02 0.03 0.04 0.06 0.05 0.05 0.05 0.04 0.03 0.03 0.03 0.02 0.02 0.03 0.04 0.05 0.07 0.08 0.07
0.03 0.02 0.01 0.02 0.01 0.01 0.01 0.01 0.00 0.01 0.01 0.01 0.01 0.01 0.02 0.02 0.02 0.01 0.00 0.01 0.01 0.01 0.02 0.02 0.02 0.02 0.03 0.06 0.07 0.06 0.05 0.05 0.04 0.03 0.03 0.02 0.02 0.02 0.04 0.04 0.06 0.08 0.07
0.02 0.02 0.02 0.03 0.01 0.01 0.00 0.00 0.01 0.01 0.01 0.01 0.01 0.02 0.03 0.03 0.03 0.02 0.02 0.01 0.01 0.02 0.01 0.02 0.02 0.02 0.04 0.06 0.07 0.06 0.05 0.05 0.04 0.03 0.02 0.02 0.02 0.02 0.03 0.05 0.07 0.08 0.07
0.03 0.04 0.04 0.04 0.02 0.02 0.01 0.01 0.01 0.00 0.00 0.00 0.01 0.03 0.03 0.03 0.04 0.04 0.03 0.03 0.03 0.04 0.03 0.04 0.05 0.04 0.05 0.06 0.06 0.06 0.04 0.04 0.03 0.02 0.02 0.02 0.02 0.02 0.02 0.04 0.04 0.05 0.05
0.06 0.07 0.08 0.08 0.05 0.03 0.03 0.02 0.02 0.01 0.00 0.01 0.01 0.03 0.03 0.03 0.04 0.05 0.04 0.04 0.05 0.05 0.04 0.04 0.04 0.05 0.09 0.10 0.08 0.06 0.04 0.04 0.03 0.03 0.03 0.02 0.03 0.03 0.02 0.03 0.03 0.03 0.04
0.07 0.06 0.08 0.08 0.06 0.04 0.04 0.03 0.02 0.02 0.02 0.03 0.02 0.03 0.04 0.05 0.04 0.05 0.05 0.04 0.04 0.05 0.05 0.05 0.07 0.08 0.14 0.14 0.11 0.09 0.06 0.03 0.03 0.03 0.02 0.03 0.03 0.03 0.03 0.03 0.02 0.02 0.03
0.03 0.03 0.08 0.14 0.10 0.05 0.06 0.08 0.09 0.06 0.05 0.06 0.05 0.06 0.06 0.05 0.04 0.05 0.04 0.04 0.04 0.05 0.06 0.06 0.07 0.08 0.10 0.11 0.12 0.10 0.06 0.05 0.04 0.03 0.02 0.02 0.02 0.02 0.02 0.02 0.02 0.02 0.03
0.02 0.02 0.05 0.09 0.05 0.04 0.08 0.14 0.18 0.17 0.14 0.10 0.07 0.05 0.05 0.04 0.04 0.04 0.03 0.04 0.04 0.05 0.06 0.06 0.07 0.07 0.09 0.10 0.07 0.05 0.05 0.04 0.04 0.03 0.02 0.02 0.02 0.03 0.03 0.03 0.02 0.02 0.03
0.02 0.01 0.01 0.02 0.03 0.03 0.05 0.10 0.15 0.14 0.11 0.08 0.06 0.03 0.03 0.03 0.02 0.03 0.04 0.04 0.04 0.05 0.07 0.06 0.05 0.04 0.04 0.03 0.02 0.03 0.03 0.04 0.04 0.03 0.02 0.02 0.02 0.03 0.03 0.03 0.02 0.02 0.02
0.02 0.01 0.02 0.02 0.03 0.04 0.05 0.06 0.07 0.07 0.07 0.06 0.04 0.03 0.02 0.01 0.02 0.02 0.03 0.04 0.05 0.05 0.05 0.05 0.04 0.04 0.03 0.03 0.02 0.02 0.03 0.02 0.02 0.02 0.01 0.02 0.02 0.02 0.03 0.02 0.02 0.01 0.02
0.02 0.01 0.02 0.02 0.03 0.03 0.04 0.04 0.04 0.04 0.03 0.02 0.02 0.02 0.01 0.01 0.01 0.02 0.02 0.03 0.04 0.05 0.05 0.04 0.04 0.04 0.03 0.02 0.02 0.02 0.02 0.02 0.02 0.02 0.02 0.02 0.02 0.02 0.02 0.02 0.02 0.01 0.01
0.01 0.01 0.01 0.02 0.02 0.02 0.02 0.02 0.02 0.02 0.02 0.02 0.02 0.01 0.01 0.01 0.01 0.02 0.03 0.03 0.03 0.03 0.03 0.04 0.03 0.03 0.02 0.03 0.03 0.03 0.03 0.02 0.02 0.02 0.02 0.02 0.02 0.01 0.01 0.01 0.01 0.01 0.01
0.01 0.01 0.01 0.02 0.02 0.02 0.02 0.02 0.01 0.02 0.02 0.01 0.01 0.01 0.01 0.01 0.02 0.02 0.02 0.03 0.03 0.03 0.03 0.03 0.03 0.02 0.03 0.03 0.04 0.04 0.04 0.02 0.02 0.02 0.01 0.01 0.01 0.01 0.01 0.01 0.01 0.01 0.01
0.02 0.02 0.02 0.02 0.02 0.01 0.02 0.01 0.01 0.02 0.02 0.02 0.01 0.01 0.02 0.03 0.03 0.03 0.03 0.03 0.03 0.03 0.03 0.03 0.02 0.02 0.01 0.02 0.03 0.04 0.06 0.06 0.05 0.04 0.03 0.02 0.01 0.02 0.02 0.02 0.03 0.02 0.02
0.02 0.02 0.03 0.04 0.03 0.02 0.02 0.01 0.01 0.02 0.05 0.05 0.04 0.04 0.04 0.04 0.03 0.03 0.03 0.03 0.03 0.03 0.02 0.01 0.01 0.01 0.01 0.01 0.01 0.02 0.03 0.05 0.07 0.08 0.08 0.06 0.05 0.04 0.04 0.04 0.06 0.05 0.04
0.03 0.03 0.05 0.06 0.05 0.03 0.02 0.02 0.02 0.03 0.06 0.09 0.08 0.08 0.07 0.06 0.05 0.04 0.04 0.03 0.02 0.02 0.02 0.01 0.01 0.00 0.00 0.00 0.00 0.01 0.01 0.02 0.03 0.04 0.06 0.07 0.08 0.08 0.08 0.08 0.10 0.11 0.11
0.04 0.04 0.04 0.03 0.02 0.02 0.02 0.02 0.02 0.02 0.04 0.08 0.09 0.09 0.08 0.08 0.07 0.06 0.04 0.03 0.02 0.01 0.01 0.01 0.00 0.00 0.00 0.00 0.00 0.00 0.00 0.01 0.02 0.02 0.03 0.03 0.03 0.04 0.06 0.08 0.08 0.08 0.07
0.02 0.02 0.01 0.01 0.01 0.02 0.02 0.01 0.02 0.02 0.02 0.04 0.06 0.06 0.07 0.08 0.08 0.06 0.04 0.03 0.02 0.02 0.01 0.01 0.01 0.00 0.00 0.00 0.00 0.01 0.01 0.01 0.01 0.02 0.01 0.01 0.02 0.02 0.02 0.03 0.04 0.04 0.04
MSLP
1005.90 1006.03 1006.05 1005.92 1005.67 1005.35 1005.03 1004.81 1004.73 1004.83 1005.08 1005.42 1005.78 1006.06 1006.22 1006.22 1006.07 1005.83 1005.58 1005.41 1005.38 1005.55 1005.92 1006.48 1007.16 1007.90 1008.64 1009.33 1009.95 1010.48 1010.94 1011.34 1011.70 1012.04 1012.33 1012.56 1012.73 1012.80 1012.78 1012.66 1012.49 1012.28 1012.07
1005.60 1005.81 1005.90 1005.83 1005.62 1005.32 1005.02 1004.79 1004.73 1004.86 1005.15 1005.57 1006.01 1006.40 1006.65 1006.74 1006.66 1006.48 1006.26 1006.10 1006.08 1006.24 1006.60 1007.13 1007.77 1008.47 1009.15 1009.76 1010.29 1010.73 1011.10 1011.43 1011.73 1012.01 1012.27 1012.49 1012.64 1012.70 1012.65 1012.50 1012.26 1011.96 1011.65
1005.03 1005.34 1005.54 1005.58 1005.46 1005.22 1004.96 1004.76 1004.72 1004.86 1005.19 1005.65 1006.16 1006.62 1006.96 1007.12 1007.12 1006.99 1006.82 1006.68 1006.65 1006.78 1007.10 1007.57 1008.14 1008.75 1009.34 1009.86 1010.30 1010.65 1010.94 1011.20 1011.46 1011.71 1011.95 1012.17 1012.32 1012.38 1012.31 1012.13 1011.84 1011.47 1011.08
1004.25 1004.65 1004.97 1005.14 1005.15 1005.01 1004.83 1004.68 1004.66 1004.82 1005.17 1005.65 1006.19 1006.70 1007.11 1007.35 1007.41 1007.35 1007.22 1007.10 1007.06 1007.16 1007.41 1007.80 1008.28 1008.78 1009.26 1009.68 1010.02 1010.30 1010.52 1010.74 1010.96 1011.19 1011.44 1011.66 1011.82 1011.88 1011.81 1011.61 1011.28 1010.87 1010.42
1003.33 1003.81 1004.25 1004.56 1004.70 1004.69 1004.60 1004.52 1004.54 1004.72 1005.07 1005.55 1006.11 1006.66 1007.11 1007.41 1007.54 1007.54 1007.46 1007.36 1007.32 1007.38 1007.56 1007.86 1008.23 1008.62 1008.99 1009.31 1009.57 1009.77 1009.95 1010.13 1010.33 1010.56 1010.80 1011.03 1011.19 1011.26 1011.19 1010.98 1010.64 1010.21 1009.72
1002.39 1002.91 1003.44 1003.87 1004.15 1004.26 1004.28 1004.27 1004.33 1004.53 1004.88 1005.36 1005.92 1006.48 1006.97 1007.33 1007.53 1007.58 1007.55 1007.48 1007.44 1007.47 1007.59 1007.80 1008.07 1008.36 1008.63 1008.86 1009.05 1009.20 1009.33 1009.48 1009.66 1009.88 1010.12 1010.34 1010.50 1010.57 1010.51 1010.30 1009.96 1009.52 1009.02
1001.53 1002.04 1002.62 1003.13 1003.51 1003.74 1003.85 1003.92 1004.03 1004.25 1004.60 1005.08 1005.64 1006.22 1006.73 1007.14 1007.40 1007.52 1007.54 1007.51 1007.48 1007.49 1007.56 1007.70 1007.89 1008.09 1008.28 1008.44 1008.56 1008.66 1008.76 1008.88 1009.03 1009.22 1009.43 1009.63 1009.78 1009.84 1009.78 1009.58 1009.27 1008.85 1008.37
1000.85 1001.30 1001.86 1002.41 1002.85 1003.16 1003.35 1003.49 1003.65 1003.90 1004.27 1004.75 1005.32 1005.90 1006.45 1006.89 1007.21 1007.39 1007.47 1007.48 1007.48 1007.49 1007.53 1007.63 1007.75 1007.88 1008.01 1008.10 1008.18 1008.23 1008.29 1008.37 1008.48 1008.62 1008.78 1008.93 1009.04 1009.08 1009.02 1008.84 1008.56 1008.18 1007.74
1000.41 1000.75 1001.25 1001.77 1002.22 1002.56 1002.81 1003.01 1003.22 1003.51 1003.91 1004.41 1004.99 1005.59 1006.16 1006.64 1007.01 1007.25 1007.39 1007.45 1007.48 1007.50 1007.54 1007.61 1007.69 1007.78 1007.85 1007.90 1007.93 1007.94 1007.94 1007.96 1008.01 1008.08 1008.16 1008.25 1008.30 1008.31 1008.23 1008.08 1007.84 1007.52 1007.15
1000.27 1000.47 1000.84 1001.27 1001.68 1002.02 1002.29 1002.53 1002.80 1003.14 1003.57 1004.11 1004.70 1005.33 1005.92 1006.44 1006.84 1007.14 1007.33 1007.44 1007.50 1007.55 1007.60 1007.65 1007.71 1007.77 1007.80 1007.81 1007.79 1007.75 1007.69 1007.64 1007.60 1007.58 1007.57 1007.57 1007.56 1007.52 1007.44 1007.30 1007.11 1006.86 1006.57
1000.46 1000.49 1000.70 1001.00 1001.31 1001.60 1001.87 1002.14 1002.45 1002.84 1003.32 1003.88 1004.51 1005.15 1005.76 1006.29 1006.73 1007.06 1007.29 1007.44 1007.54 1007.61 1007.67 1007.73 1007.78 1007.82 1007.82 1007.79 1007.72 1007.62 1007.50 1007.36 1007.23 1007.11 1007.00 1006.91 1006.83 1006.74 1006.65 1006.53 1006.39 1006.22 1006.01
1000.97 1000.83 1000.85 1000.99 1001.17 1001.38 1001.62 1001.90 1002.24 1002.67 1003.19 1003.79 1004.43 1005.07 1005.68 1006.22 1006.67 1007.01 1007.26 1007.44 1007.57 1007.66 1007.74 1007.81 1007.86 1007.88 1007.85 1007.79 1007.67 1007.51 1007.31 1007.09 1006.87 1006.65 1006.45 1006.28 1006.13 1006.00 1005.89 1005.80 1005.70 1005.60 1005.47
1001.81 1001.49 1001.33 1001.29 1001.33 1001.44 1001.62 1001.88 1002.24 1002.70 1003.24 1003.85 1004.49 1005.12 1005.71 1006.22 1006.65 1006.98 1007.24 1007.43 1007.57 1007.69 1007.78 1007.85 1007.89 1007.90 1007.85 1007.75 1007.59 1007.37 1007.11 1006.82 1006.52 1006.22 1005.95 1005.70 1005.50 1005.34 1005.22 1005.14 1005.08 1005.02 1004.96
1002.93 1002.46 1002.13 1001.91 1001.81 1001.81 1001.92 1002.15 1002.50 1002.95 1003.49 1004.08 1004.69 1005.29 1005.83 1006.29 1006.68 1006.98 1007.22 1007.40 1007.55 1007.67 1007.77 1007.84 1007.88 1007.87 1007.80 1007.66 1007.46 1007.20 1006.89 1006.55 1006.19 1005.84 1005.51 1005.22 1004.99 1004.80 1004.67 1004.59 1004.55 1004.52 1004.49
1004.27 1003.69 1003.21 1002.85 1002.61 1002.51 1002.54 1002.72 1003.03 1003.46 1003.96 1004.51 1005.06 1005.58 1006.04 1006.44 1006.76 1007.01 1007.21 1007.38 1007.52 1007.64 1007.74 1007.80 1007.83 1007.80 1007.70 1007.54 1007.30 1007.01 1006.67 1006.29 1005.91 1005.54 1005.19 1004.88 1004.62 1004.42 1004.28 1004.19 1004.14 1004.11 1004.08
1005.74 1005.09 1004.52 1004.04 1003.70 1003.50 1003.46 1003.58 1003.84 1004.20 1004.64 1005.11 1005.57 1005.99 1006.36 1006.66 1006.90 1007.09 1007.25 1007.39 1007.51 1007.62 1007.71 1007.77 1007.78 1007.73 1007.61 1007.41 1007.15 1006.84 1006.48 1006.10 1005.71 1005.34 1005.00 1004.69 1004.43 1004.22 1004.07 1003.96 1003.88 1003.82 1003.75
1007.24 1006.57 1005.95 1005.41 1005.00 1004.73 1004.63 1004.68 1004.87 1005.16 1005.50 1005.87 1006.21 1006.52 1006.77 1006.97 1007.13 1007.26 1007.37 1007.47 1007.58 1007.67 1007.75 1007.79 1007.78 1007.70 1007.55 1007.33 1007.05 1006.73 1006.36 1005.99 1005.63 1005.28 1004.96 1004.67 1004.42 1004.21 1004.03 1003.89 1003.76 1003.64 1003.51
1008.66 1008.01 1007.39 1006.84 1006.40 1006.10 1005.95 1005.94 1006.06 1006.26 1006.50 1006.74 1006.96 1007.15 1007.28 1007.38 1007.45 1007.52 1007.59 1007.66 1007.75 1007.83 1007.89 1007.90 1007.86 1007.76 1007.58 1007.34 1007.04 1006.71 1006.35 1006.00 1005.67 1005.35 1005.06 1004.80 1004.57 1004.36 1004.16 1003.97 1003.79 1003.59 1003.38
1009.89 1009.32 1008.74 1008.22 1007.80 1007.49 1007.32 1007.27 1007.31 1007.42 1007.55 1007.68 1007.78 1007.84 1007.87 1007.87 1007.87 1007.88 1007.91 1007.96 1008.03 1008.09 1008.13 1008.12 1008.05 1007.91 1007.71 1007.44 1007.13 1006.79 1006.45 1006.13 1005.82 1005.55 1005.30 1005.07 1004.85 1004.63 1004.41 1004.18 1003.93 1003.65 1003.35
1010.91 1010.42 1009.93 1009.48 1009.10 1008.81 1008.63 1008.55 1008.53 1008.56 1008.59 1008.61 1008.60 1008.56 1008.49 1008.42 1008.36 1008.33 1008.33 1008.36 1008.40 1008.45 1008.46 1008.43 1008.32 1008.15 1007.92 1007.62 1007.30 1006.97 1006.64 1006.34 1006.08 1005.84 1005.62 1005.42 1005.21 1004.99 1004.75 1004.47 1004.16 1003.82 1003.45
1011.69 1011.32 1010.92 1010.55 1010.24 1009.99 1009.82 1009.72 1009.66 1009.61 1009.56 1009.49 1009.39 1009.26 1009.13 1009.00 1008.90 1008.83 1008.81 1008.82 1008.84 1008.86 1008.85 1008.78 1008.65 1008.44 1008.18 1007.87 1007.54 1007.21 1006.90 1006.63 1006.39 1006.18 1006.00 1005.81 1005.61 1005.39 1005.12 1004.82 1004.47 1004.08 1003.65
1012.28 1012.01 1011.72 1011.44 1011.19 1010.99 1010.84 1010.73 1010.63 1010.53 1010.42 1010.27 1010.11 1009.92 1009.73 1009.57 1009.43 1009.35 1009.30 1009.29 1009.29 1009.29 1009.24 1009.14 1008.98 1008.75 1008.46 1008.14 1007.81 1007.49 1007.20 1006.95 1006.74 1006.56 1006.39 1006.22 1006.03 1005.80 1005.52 1005.19 1004.82 1004.40 1003.95
1012.75 1012.57 1012.37 1012.17 1011.98 1011.82 1011.68 1011.56 1011.44 1011.30 1011.14 1010.95 1010.74 1010.51 1010.30 1010.11 1009.96 1009.85 1009.79 1009.76 1009.73 1009.69 1009.61 1009.48 1009.28 1009.03 1008.73 1008.41 1008.09 1007.79 1007.52 1007.29 1007.11 1006.94 1006.79 1006.63 1006.44 1006.20 1005.92 1005.58 1005.20 1004.78 1004.33
1013.17 1013.06 1012.92 1012.78 1012.63 1012.50 1012.37 1012.24 1012.09 1011.93 1011.73 1011.51 1011.28 1011.04 1010.81 1010.61 1010.46 1010.34 1010.26 1010.20 1010.14 1010.07 1009.95 1009.78 1009.56 1009.29 1008.99 1008.68 1008.37 1008.09 1007.85 1007.65 1007.48 1007.34 1007.19 1007.04 1006.84 1006.61 1006.32 1005.98 1005.61 1005.21 1004.78
1013.59 1013.52 1013.43 1013.31 1013.19 1013.07 1012.93 1012.79 1012.62 1012.43 1012.22 1011.99 1011.75 1011.51 1011.29 1011.10 1010.94 1010.82 1010.72 1010.63 1010.54 1010.43 1010.27 1010.07 1009.83 1009.55 1009.25 1008.94 1008.66 1008.41 1008.19 1008.02 1007.88 1007.75 1007.61 1007.45 1007.26 1007.02 1006.73 1006.41 1006.05 1005.67 1005.28
1014.04 1014.00 1013.92 1013.81 1013.69 1013.55 1013.40 1013.23 1013.05 1012.85 1012.63 1012.40 1012.17 1011.95 1011.75 1011.57 1011.42 1011.30 1011.19 1011.08 1010.95 1010.80 1010.61 1010.38 1010.11 1009.83 1009.53 1009.24 1008.99 1008.76 1008.58 1008.43 1008.31 1008.19 1008.06 1007.91 1007.71 1007.47 1007.18 1006.86 1006.52 1006.16 1005.81
Thickness
5799 5799 5798 5795 5792 5789 5785 5782 5779 5777 5775 5772 5769 5766 5764 5764 5763 5763 5762 5761 5760 5759 5757 5755 5754 5753 5750 5749 5749 5748 5746 5746 5747 5744 5743 5746 5748 5749 5750 5749 5748 5748 5747
5794 5795 5795 5793 5790 5786 5783 5781 5778 5775 5774 5771 5769 5766 5764 5762 5761 5760 5759 5758 5757 5756 5755 5753 5751 5750 5748 5746 5745 5744 5742 5742 5743 5739 5734 5732 5736 5742 5747 5746 5745 5745 5744
5793 5793 5792 5791 5789 5785 5783 5781 5777 5775 5773 5771 5767 5764 5761 5759 5757 5756 5755 5755 5754 5753 5752 5751 5749 5747 5745 5743 5742 5741 5739 5736 5738 5738 5733 5726 5724 5731 5738 5741 5741 5741 5740
5796 5793 5791 5789 5787 5786 5784 5780 5777 5774 5772 5769 5765 5760 5756 5752 5752 5753 5753 5752 5752 5751 5749 5748 5746 5744 5742 5741 5740 5739 5737 5735 5732 5733 5734 5732 5730 5725 5725 5731 5735 5737 5736
5797 5794 5793 5792 5789 5787 5783 5780 5776 5773 5770 5768 5764 5759 5755 5753 5752 5751 5750 5749 5748 5748 5746 5745 5743 5741 5739 5738 5737 5736 5734 5732 5730 5728 5728 5728 5727 5726 5722 5720 5725 5729 5732
5800 5797 5795 5792 5788 5785 5782 5778 5774 5770 5769 5766 5762 5758 5754 5751 5749 5747 5745 5745 5744 5744 5743 5742 5740 5738 5736 5734 5733 5732 5731 5729 5727 5726 5725 5724 5722 5720 5719 5717 5718 5720 5724
5798 5795 5792 5788 5785 5782 5780 5777 5772 5768 5766 5763 5760 5757 5754 5751 5747 5744 5743 5741 5739 5739 5739 5738 5736 5734 5732 5731 5730 5728 5726 5725 5724 5723 5722 5722 5721 5720 5718 5715 5714 5714 5717
5798 5795 5792 5789 5785 5781 5778 5774 5770 5765 5763 5760 5757 5755 5752 5749 5746 5744 5742 5739 5738 5736 5736 5734 5733 5731 5729 5728 5726 5724 5722 5721 5720 5720 5719 5718 5718 5718 5716 5713 5710 5707 5708
5796 5793 5790 5787 5784 5780 5776 5773 5768 5764 5760 5757 5754 5751 5749 5747 5744 5742 5740 5738 5736 5735 5732 5730 5729 5727 5725 5724 5722 5719 5718 5717 5715 5715 5714 5714 5713 5713 5713 5711 5709 5703 5699
5791 5789 5786 5783 5780 5778 5775 5771 5766 5762 5759 5755 5753 5750 5747 5745 5742 5739 5737 5735 5733 5732 5729 5727 5725 5723 5721 5719 5717 5715 5714 5712 5710 5710 5709 5708 5708 5708 5707 5706 5705 5702 5698
5786 5785 5783 5781 5777 5775 5771 5766 5762 5758 5755 5752 5749 5747 5744 5742 5739 5736 5734 5732 5730 5728 5725 5723 5721 5719 5717 5715 5713 5711 5709 5707 5706 5705 5704 5703 5703 5701 5701 5700 5698 5696 5694
5784 5782 5779 5776 5772 5769 5767 5763 5759 5755 5753 5750 5746 5743 5741 5738 5735 5732 5730 5728 5726 5724 5722 5719 5716 5714 5712 5710 5708 5706 5705 5703 5701 5700 5699 5698 5698 5696 5695 5694 5692 5691 5690
5780 5777 5773 5770 5768 5766 5763 5760 5756 5752 5750 5746 5742 5739 5737 5734 5731 5728 5725 5723 5721 5719 5717 5714 5711 5709 5707 5705 5703 5701 5699 5698 5696 5695 5693 5691 5690 5689 5688 5687 5685 5684 5684
5777 5773 5768 5766 5765 5763 5760 5757 5754 5751 5747 5742 5738 5734 5732 5729 5727 5725 5722 5719 5716 5714 5711 5709 5706 5704 5702 5700 5698 5696 5694 5692 5690 5689 5687 5686 5684 5683 5682 5681 5679 5678 5676
5771 5769 5766 5762 5760 5758 5755 5752 5749 5746 5743 5737 5733 5730 5728 5725 5723 5720 5717 5714 5712 5709 5706 5703 5701 5699 5697 5695 5692 5690 5689 5686 5684 5683 5681 5680 5679 5678 5676 5675 5672 5670 5668
5768 5767 5764 5760 5757 5754 5751 5748 5745 5741 5736 5731 5728 5725 5723 5720 5717 5714 5712 5709 5706 5703 5700 5697 5695 5693 5692 5690 5687 5685 5682 5680 5678 5675 5674 5673 5671 5671 5669 5668 5666 5664 5660
5766 5763 5760 5757 5754 5751 5748 5743 5740 5737 5732 5727 5723 5720 5717 5714 5712 5710 5706 5702 5699 5696 5693 5691 5688 5685 5684 5683 5681 5679 5676 5673 5671 5669 5666 5666 5665 5662 5661 5659 5658 5656 5655
5764 5760 5756 5753 5750 5747 5744 5740 5736 5732 5726 5721 5718 5715 5712 5709 5706 5703 5699 5696 5693 5690 5686 5683 5681 5678 5677 5676 5674 5672 5669 5666 5664 5662 5659 5657 5655 5655 5653 5650 5648 5647 5646
5762 5758 5754 5750 5745 5741 5738 5734 5729 5725 5720 5716 5712 5710 5707 5704 5701 5697 5694 5691 5687 5684 5681 5677 5674 5671 5669 5668 5667 5665 5661 5658 5656 5654 5652 5650 5647 5646 5645 5642 5639 5637 5637
5757 5753 5749 5745 5739 5735 5732 5727 5721 5717 5713 5711 5708 5706 5703 5700 5696 5692 5689 5686 5682 5678 5675 5671 5667 5664 5661 5660 5659 5656 5653 5650 5647 5645 5643 5642 5640 5638 5636 5633 5630 5627 5627
5752 5748 5743 5738 5734 5731 5726 5719 5715 5711 5710 5708 5704 5701 5698 5694 5691 5687 5683 5679 5676 5671 5668 5664 5661 5658 5655 5653 5651 5649 5645 5642 5639 5637 5635 5634 5633 5630 5628 5626 5623 5621 5620
5745 5741 5735 5730 5727 5725 5719 5713 5709 5708 5705 5702 5698 5695 5692 5690 5687 5681 5677 5672 5668 5663 5659 5655 5652 5651 5648 5646 5643 5641 5638 5636 5632 5630 5628 5626 5625 5622 5620 5618 5616 5614 5612
5738 5733 5728 5722 5720 5718 5714 5708 5705 5703 5699 5695 5691 5688 5686 5683 5679 5675 5670 5666 5661 5657 5652 5648 5644 5642 5641 5638 5637 5634 5632 5629 5626 5624 5622 5620 5617 5614 5612 5611 5609 5606 5603
5729 5725 5720 5715 5712 5710 5708 5704 5701 5697 5693 5687 5684 5680 5677 5674 5671 5668 5665 5660 5656 5651 5647 5643 5639 5636 5633 5631 5629 5626 5623 5622 5619 5616 5614 5612 5609 5607 5605 5603 5601 5598 5596
5722 5719 5714 5710 5706 5704 5700 5698 5695 5691 5685 5681 5677 5674 5670 5667 5664 5660 5658 5655 5652 5649 5644 5639 5635 5631 5627 5626 5623 5619 5616 5614 5612 5609 5606 5603 5600 5598 5597 5595 5593 5591 5589
5716 5711 5708 5704 5701 5698 5694 5692 5690 5686 5680 5675 5671 5668 5664 5661 5657 5653 5650 5649 5646 5644 5640 5637 5632 5628 5625 5622 5618 5615 5612 5609 5606 5601 5598 5596 5593 5591 5590 5588 5587 5585 5583